Location: Unspecified
(0.0000°N, 0.0000°E)
Time: 01:28:46
(UTC+00:00)

S-56A Canister/Altair - Pass Details

Date: 25 November 2019
Orbit: 633 x 2499 km, 38.9° (Epoch: 10 December)

Event Time Altitude Azimuth Distance (km) Brightness Sun altitude
Rises 13:51:44 0° 260° (W) 6,168 12.6 53.1°
Reaches altitude 10° 13:57:02 10° 272° (W) 5,147 12.4 52.0°
Maximum altitude 14:07:54 24° 320° (NW) 3,810 11.4 49.8°
Drops below altitude 10° 14:17:18 10° 9° (N) 4,358 11.2 47.8°
Sets 14:21:23 0° 23° (NNE) 5,061 11.4 46.9°
